Location: Unspecified
(0.0000°N, 0.0000°E)
Time: 07:18:57
(UTC+01:00)

Tiangong 1 - Visible Passes

Search period start: 26 January 2015 00:00
Search period end: 05 February 2015 00:00
Orbit: 356 x 374 km, 42.8° (Epoch: 25 January)

Date Brightness Start Highest point End Pass type
(mag) Time Alt. Az. Time Alt. Az. Time Alt. Az.
26 Jan 1.2 19:38:05 10° SW 19:41:07 72° NW 19:44:10 10° NE visible
27 Jan 3.9 20:10:40 10° WNW 20:11:35 11° NW 20:12:21 10° NNW visible
28 Jan 3.6 06:00:42 11° N 06:02:24 15° NE 06:04:18 10° E visible
29 Jan 0.9 06:30:15 14° NW 06:32:44 71° SW 06:35:43 10° SE visible
30 Jan 3.4 05:27:53 21° E 05:27:53 21° E 05:29:26 10° ESE visible
31 Jan 2.0 05:57:16 32° SSW 05:57:16 32° SSW 05:59:43 10° SSE visible
